EN

Hourly Weather Southport

Today, 15 January, Friday

Time Temperature Precipitation Wind Pressure Humidity
00:00 +1°C° 0 mm 2 mps 770 mmHg 92%
01:00 +1°C° 0 mm 2 mps 770 mmHg 92%
02:00 +2°C° 0 mm 1 mps 770 mmHg 92%
03:00 +1°C° 0 mm 1 mps 771 mmHg 92%
04:00 -1°C° 0 mm 2 mps 771 mmHg 92%
05:00 -1°C° 0 mm 2 mps 771 mmHg 93%
06:00 -1°C° 0 mm 3 mps 771 mmHg 95%
07:00 -1°C° 0 mm 3 mps 772 mmHg 94%
08:00 -1°C° 0 mm 3 mps 772 mmHg 93%
09:00 -1°C° 0 mm 3 mps 772 mmHg 93%
10:00 -1°C° 0 mm 4 mps 772 mmHg 89%
11:00 0°C° 0 mm 4 mps 772 mmHg 86%
12:00 0°C° 0 mm 5 mps 772 mmHg 83%
13:00 0°C° 0 mm 5 mps 771 mmHg 83%
14:00 0°C° 0 mm 5 mps 771 mmHg 83%
15:00 0°C° 0 mm 5 mps 770 mmHg 83%
16:00 0°C° 0 mm 5 mps 770 mmHg 85%
17:00 0°C° 0 mm 5 mps 770 mmHg 87%
18:00 -2°C° 0 mm 6 mps 770 mmHg 88%
19:00 -2°C° 0 mm 6 mps 769 mmHg 88%
20:00 -1°C° 0 mm 6 mps 769 mmHg 87%
21:00 -1°C° 0 mm 6 mps 768 mmHg 86%
22:00 -1°C° 0 mm 7 mps 767 mmHg 86%
23:00 -1°C° 0 mm 7 mps 766 mmHg 86%

Tomorrow, 16 January, Saturday

Time Temperature Precipitation Wind Pressure Humidity
00:00 -1°C° 0 mm 8 mps 765 mmHg 86%
01:00 0°C° 1.6 mm 9 mps 764 mmHg 88%
02:00 0°C° 1.6 mm 9 mps 763 mmHg 90%
03:00 0°C° 1.6 mm 10 mps 761 mmHg 92%
04:00 +1°C° 1.4 mm 10 mps 760 mmHg 92%
05:00 +1°C° 1.4 mm 9 mps 760 mmHg 92%
06:00 +2°C° 1.4 mm 9 mps 759 mmHg 92%
07:00 +2°C° 1 mm 8 mps 759 mmHg 93%
08:00 +4°C° 1 mm 7 mps 759 mmHg 94%
09:00 +5°C° 1 mm 5 mps 758 mmHg 95%
10:00 +5°C° 0 mm 6 mps 759 mmHg 92%
11:00 +5°C° 0 mm 6 mps 759 mmHg 89%
12:00 +6°C° 0 mm 7 mps 760 mmHg 85%
13:00 +5°C° 0 mm 7 mps 760 mmHg 85%
14:00 +5°C° 0 mm 7 mps 760 mmHg 84%
15:00 +5°C° 0 mm 7 mps 761 mmHg 83%
16:00 +5°C° 0 mm 7 mps 761 mmHg 83%
17:00 +4°C° 0 mm 7 mps 762 mmHg 83%
18:00 +3°C° 0 mm 7 mps 762 mmHg 84%
19:00 +3°C° 0 mm 6 mps 762 mmHg 83%
20:00 +3°C° 0 mm 6 mps 763 mmHg 82%
21:00 +3°C° 0 mm 6 mps 763 mmHg 81%
22:00 +3°C° 0.1 mm 6 mps 763 mmHg 81%
23:00 +3°C° 0.1 mm 7 mps 763 mmHg 81%

Day after tomorrow, 17 January, Sunday

Time Temperature Precipitation Wind Pressure Humidity
00:00 +3°C° 0.1 mm 7 mps 763 mmHg 81%
01:00 +3°C° 0.2 mm 7 mps 764 mmHg 81%
02:00 +3°C° 0.2 mm 7 mps 764 mmHg 82%
03:00 +3°C° 0.2 mm 7 mps 764 mmHg 82%
04:00 +3°C° 0.1 mm 7 mps 764 mmHg 83%
05:00 +3°C° 0.1 mm 6 mps 764 mmHg 83%
06:00 +3°C° 0.1 mm 6 mps 764 mmHg 84%
07:00 +3°C° 0 mm 6 mps 765 mmHg 85%
08:00 +3°C° 0 mm 6 mps 765 mmHg 85%
09:00 +3°C° 0 mm 5 mps 766 mmHg 86%
10:00 +3°C° 0 mm 5 mps 766 mmHg 84%
11:00 +5°C° 0 mm 5 mps 766 mmHg 82%
12:00 +6°C° 0 mm 5 mps 767 mmHg 80%
13:00 +4°C° 0 mm 6 mps 767 mmHg 81%
14:00 +4°C° 0 mm 6 mps 766 mmHg 81%
15:00 +4°C° 0 mm 6 mps 766 mmHg 81%
16:00 +4°C° 0 mm 6 mps 767 mmHg 83%
17:00 +4°C° 0 mm 6 mps 767 mmHg 85%
18:00 +3°C° 0 mm 6 mps 767 mmHg 86%
19:00 +3°C° 0.1 mm 6 mps 767 mmHg 87%
20:00 +3°C° 0.1 mm 5 mps 767 mmHg 88%
21:00 +3°C° 0.1 mm 5 mps 767 mmHg 89%
22:00 +3°C° 0 mm 5 mps 767 mmHg 90%
23:00 +3°C° 0 mm 5 mps 767 mmHg 90%

18 January, Monday

Time Temperature Precipitation Wind Pressure Humidity
00:00 +3°C° 0 mm 5 mps 767 mmHg 91%
01:00 +3°C° 0 mm 5 mps 767 mmHg 91%
02:00 +2°C° 0 mm 5 mps 766 mmHg 91%
03:00 +2°C° 0 mm 5 mps 766 mmHg 92%
04:00 +2°C° 0 mm 5 mps 766 mmHg 91%
05:00 +3°C° 0 mm 4 mps 766 mmHg 91%
06:00 +3°C° 0 mm 4 mps 766 mmHg 91%
07:00 +3°C° 0 mm 4 mps 765 mmHg 91%
08:00 +3°C° 0 mm 4 mps 765 mmHg 90%
09:00 +3°C° 0 mm 4 mps 765 mmHg 90%
10:00 +2°C° 0 mm 5 mps 765 mmHg 87%
11:00 +3°C° 0 mm 5 mps 764 mmHg 85%
12:00 +3°C° 0 mm 5 mps 764 mmHg 83%
13:00 +3°C° 0 mm 5 mps 763 mmHg 82%
14:00 +3°C° 0 mm 5 mps 762 mmHg 82%
15:00 +3°C° 0 mm 5 mps 761 mmHg 81%
16:00 +3°C° 0.3 mm 6 mps 760 mmHg 84%
17:00 +3°C° 0.3 mm 6 mps 759 mmHg 86%
18:00 +2°C° 0.3 mm 7 mps 758 mmHg 89%
19:00 +3°C° 1.7 mm 7 mps 757 mmHg 90%
20:00 +2°C° 1.7 mm 8 mps 756 mmHg 91%
21:00 +3°C° 1.7 mm 9 mps 754 mmHg 93%
22:00 +3°C° 1.9 mm 9 mps 753 mmHg 93%
23:00 +5°C° 1.9 mm 8 mps 752 mmHg 94%

19 January, Tuesday

Time Temperature Precipitation Wind Pressure Humidity
00:00 +6°C° 1.9 mm 8 mps 751 mmHg 95%
01:00 +7°C° 1.3 mm 9 mps 750 mmHg 94%
02:00 +8°C° 1.3 mm 10 mps 749 mmHg 93%
03:00 +8°C° 1.3 mm 11 mps 749 mmHg 92%
04:00 +8°C° 0.2 mm 11 mps 749 mmHg 90%
05:00 +8°C° 0.2 mm 11 mps 748 mmHg 88%
06:00 +8°C° 0.2 mm 10 mps 748 mmHg 86%
07:00 +8°C° 0.2 mm 10 mps 748 mmHg 86%
08:00 +8°C° 0.2 mm 9 mps 747 mmHg 85%
09:00 +8°C° 0.2 mm 9 mps 747 mmHg 85%
10:00 +9°C° 0.3 mm 8 mps 746 mmHg 85%
11:00 +9°C° 0.3 mm 8 mps 745 mmHg 85%
12:00 +9°C° 0.3 mm 8 mps 745 mmHg 86%
13:00 +9°C° 0.4 mm 8 mps 744 mmHg 86%
14:00 +9°C° 0.4 mm 8 mps 743 mmHg 86%
15:00 +9°C° 0.4 mm 8 mps 742 mmHg 86%
16:00 +9°C° 0.7 mm 8 mps 741 mmHg 87%
17:00 +9°C° 0.7 mm 8 mps 740 mmHg 88%
18:00 +9°C° 0.7 mm 8 mps 740 mmHg 88%
19:00 +9°C° 0.8 mm 8 mps 739 mmHg 88%
20:00 +9°C° 0.8 mm 8 mps 738 mmHg 89%
21:00 +9°C° 0.8 mm 8 mps 737 mmHg 89%
22:00 +8°C° 1.1 mm 9 mps 736 mmHg 88%
23:00 +8°C° 1.1 mm 9 mps 735 mmHg 88%

20 January, Wednesday

Time Temperature Precipitation Wind Pressure Humidity
00:00 +8°C° 1.1 mm 9 mps 734 mmHg 88%
01:00 +8°C° 0.6 mm 9 mps 734 mmHg 86%
02:00 +9°C° 0.6 mm 8 mps 734 mmHg 85%
03:00 +10°C° 0.6 mm 8 mps 733 mmHg 83%
04:00 +7°C° 0.2 mm 9 mps 734 mmHg 85%
05:00 +6°C° 0.2 mm 9 mps 734 mmHg 86%
06:00 +5°C° 0.2 mm 10 mps 735 mmHg 88%
07:00 +5°C° 0.4 mm 10 mps 735 mmHg 87%
08:00 +3°C° 0.4 mm 10 mps 736 mmHg 86%
09:00 +2°C° 0.4 mm 10 mps 737 mmHg 85%
10:00 +3°C° 0.3 mm 10 mps 737 mmHg 81%
11:00 +3°C° 0.3 mm 10 mps 738 mmHg 78%
12:00 +3°C° 0.3 mm 10 mps 738 mmHg 74%
13:00 +3°C° 0.2 mm 10 mps 738 mmHg 74%
14:00 +3°C° 0.2 mm 10 mps 738 mmHg 74%
15:00 +3°C° 0.2 mm 10 mps 738 mmHg 74%
16:00 +3°C° 0.3 mm 10 mps 738 mmHg 75%
17:00 +2°C° 0.3 mm 10 mps 739 mmHg 76%
18:00 +2°C° 0.3 mm 9 mps 739 mmHg 77%
19:00 +2°C° 0.3 mm 9 mps 739 mmHg 76%
20:00 +2°C° 0.3 mm 9 mps 740 mmHg 75%
21:00 +2°C° 0.3 mm 9 mps 740 mmHg 74%
22:00 +2°C° 0.4 mm 9 mps 740 mmHg 75%
23:00 +2°C° 0.4 mm 10 mps 741 mmHg 76%
Show more